Weather History for KLMT - May, 2013

Change the Weather History Date:

Tuesday, May 21, 2013

  Actual Average Record
Temperature  
Mean Temperature 43 °F 52 °F  
Max Temperature 57 °F 67 °F 86 °F (1979)
Min Temperature 29 °F 38 °F 24 °F (1962)
Degree Days  
Heating Degree Days 22 13  
Month to date heating degree days 226 319  
Since 1 July heating degree days 6290 6638  
Cooling Degree Days 0 0  
Month to date cooling degree days 0 0  
Year to date cooling degree days 0 0  
Moisture  
Dew Point 32 °F    
Average Humidity 64    
Maximum Humidity 92    
Minimum Humidity 28    
Precipitation  
Precipitation 0.01 in 0.04 in 0.87 in (1946)
Month to date precipitation 0.40 1.18  
Year to date precipitation 2.93 7.59  
Sea Level Pressure  
Sea Level Pressure 29.86 in    
Wind  
Wind Speed 15 mph (West)    
Max Wind Speed 32 mph    
Max Gust Speed 39 mph    
Visibility 10 miles    
Events Rain    
T = Trace of Precipitation, MM = Missing Value Source: NWS Daily Summary

Daily Weather History Graph

Daily Weather History Graph

Search for Another Location

Airport or City:

Trip Planner

Search our weather history database for the weather conditions in past years. The results will help you decide how hot, cold, wet, or windy it might be!

Date:

Astronomy

May. 21, 2013 Rise Set
Actual Time 5:40 AM PDT 8:27 PM PDT
Civil Twilight 5:07 AM PDT 9:00 PM PDT
Nautical Twilight 4:26 AM PDT 9:41 PM PDT
Astronomical Twilight 3:39 AM PDT 10:29 PM PDT
Moon 4:43 PM PDT (5/21) 3:15 AM PDT (5/21)
Length of Visible Light 15h 52m
Length of Day
14h 47m
Waxing Gibbous, 85% of the Moon is Illuminated
May 21
Waxing Gibbous
May 24
Full
May 31
Last Quarter
Jun 8
New
Jun 16
First Quarter

Hourly Weather History & Observations

Time (PDT) Temp. Windchill Dew Point Humidity Pressure Visibility Wind Dir Wind Speed Gust Speed Precip Events Conditions
12:53 AM 53.1 °F - 43.0 °F 69% 29.89 in 10.0 mi West 8.1 mph - N/A   Clear
1:53 AM 48.9 °F - 42.1 °F 77% 29.87 in 10.0 mi SW 9.2 mph - N/A   Clear
2:53 AM 48.0 °F - 41.0 °F 77% 29.84 in 10.0 mi WSW 5.8 mph - N/A   Clear
3:53 AM 43.0 °F - 39.9 °F 89% 29.82 in 10.0 mi Calm Calm - N/A   Clear
4:53 AM 37.9 °F 35.5 °F 36.0 °F 93% 29.81 in 10.0 mi Variable 3.5 mph - N/A   Clear
5:53 AM 39.9 °F - 37.9 °F 93% 29.76 in 10.0 mi Calm Calm - N/A   Clear
6:53 AM 45.0 °F - 39.9 °F 82% 29.75 in 10.0 mi Calm Calm - N/A   Partly Cloudy
7:53 AM 52.0 °F - 33.1 °F 49% 29.74 in 10.0 mi West 17.3 mph - N/A   Clear
8:53 AM 53.1 °F - 30.9 °F 43% 29.77 in 10.0 mi West 26.5 mph 34.5 mph N/A   Clear
9:53 AM 54.0 °F - 21.9 °F 29% 29.80 in 10.0 mi West 27.6 mph 36.8 mph N/A   Clear
10:53 AM 54.0 °F - 24.1 °F 31% 29.81 in 10.0 mi West 25.3 mph 33.4 mph N/A   Clear
11:53 AM 55.0 °F - 27.0 °F 34% 29.82 in 10.0 mi West 23.0 mph 35.7 mph N/A   Mostly Cloudy
12:53 PM 54.0 °F - 28.0 °F 37% 29.81 in 10.0 mi WSW 23.0 mph 32.2 mph N/A   Mostly Cloudy
1:53 PM 53.1 °F - 28.9 °F 40% 29.83 in 10.0 mi WSW 24.2 mph 34.5 mph N/A   Mostly Cloudy
2:53 PM 48.9 °F - 37.0 °F 64% 29.85 in 6.0 mi WNW 25.3 mph 34.5 mph 0.00 in Rain Light Rain
3:53 PM 46.9 °F - 36.0 °F 66% 29.89 in 10.0 mi WNW 21.9 mph 32.2 mph 0.00 in Rain Light Rain
4:21 PM 44.6 °F 35.9 °F 35.6 °F 71% 29.92 in 9.0 mi WNW 23.0 mph 33.4 mph 0.00 in Rain Light Rain
4:28 PM 46.4 °F 38.7 °F 35.6 °F 66% 29.92 in 9.0 mi WNW 20.7 mph 27.6 mph 0.00 in Rain Light Rain
4:49 PM 44.6 °F 36.9 °F 33.8 °F 66% 29.92 in 10.0 mi WNW 18.4 mph 24.2 mph 0.00 in   Mostly Cloudy
4:53 PM 45.0 °F 36.6 °F 33.1 °F 63% 29.92 in 9.0 mi WNW 21.9 mph 26.5 mph 0.00 in   Mostly Cloudy
5:53 PM 43.0 °F 35.1 °F 30.0 °F 60% 29.92 in 10.0 mi WNW 17.3 mph - 0.01 in Rain Light Rain
6:53 PM 41.0 °F 31.6 °F 28.0 °F 60% 29.91 in 10.0 mi WNW 20.7 mph 29.9 mph 0.00 in   Mostly Cloudy
7:53 PM 37.0 °F 28.1 °F 28.0 °F 70% 29.92 in 10.0 mi West 15.0 mph - 0.00 in   Mostly Cloudy
8:53 PM 35.1 °F 27.4 °F 27.0 °F 72% 29.94 in 10.0 mi WNW 10.4 mph - N/A   Overcast
9:53 PM 33.1 °F 24.4 °F 27.0 °F 78% 29.96 in 10.0 mi West 11.5 mph - 0.00 in   Overcast
10:53 PM 32.0 °F 22.5 °F 24.1 °F 73% 29.97 in 10.0 mi West 12.7 mph 21.9 mph N/A   Mostly Cloudy
11:53 PM 30.9 °F 25.2 °F 25.0 °F 79% 29.99 in 10.0 mi NW 5.8 mph - N/A   Mostly Cloudy